Weather History for Haleyville, AL

Change the Weather History Date:

Saturday, February 16, 2013

  Actual Average (KJFX) Record (KJFX)
Temperature  
Mean Temperature 32 °F -  
Max Temperature 38 °F 60 °F 80 °F (1989)
Min Temperature 24 °F 35 °F 11 °F (1991)
Degree Days  
Heating Degree Days 33    
Moisture  
Dew Point 17 °F    
Average Humidity 54    
Maximum Humidity 75    
Minimum Humidity 32    
Precipitation  
Precipitation 0.00 in - - ()
Sea Level Pressure  
Sea Level Pressure 30.21 in    
Wind  
Wind Speed 6 mph (NNW)    
Max Wind Speed 16 mph    
Max Gust Speed 28 mph    
Visibility 10 miles    
Events      
Averages and records for this station are not official NWS values.
T = Trace of Precipitation, MM = Missing Value Source: NWS Daily Summary

Daily Weather History Graph

Daily Weather History Graph

Search for Another Location

Airport:

Trip Planner

Search our weather history database for the weather conditions in past years. The results will help you decide how hot, cold, wet, or windy it might be!

Date:

Astronomy

Feb. 16, 2013 Rise Set
Actual Time 6:34 AM CST 5:35 PM CST
Civil Twilight 6:08 AM CST 6:00 PM CST
Nautical Twilight 5:39 AM CST 6:30 PM CST
Astronomical Twilight 5:10 AM CST 6:59 PM CST
Moon 10:05 AM CST (2/16) No Moon Set
Length of Visible Light 11h 52m
Length of Day
11h 01m
Waxing Crescent, 39% of the Moon is Illuminated
Feb 16
Waxing Crescent
Feb 17
First Quarter
Feb 25
Full
Mar 4
Last Quarter
Mar 11
New

Hourly Weather History & Observations

Time (CST) Temp. Windchill Dew Point Humidity Pressure Visibility Wind Dir Wind Speed Gust Speed Precip Events Conditions
12:56 AM 34.9 °F - 26.1 °F 70% 30.16 in 10.0 mi Calm Calm - N/A   Scattered Clouds
1:56 AM 34.0 °F 27.2 °F 26.1 °F 73% 30.16 in 10.0 mi North 8.1 mph - N/A   Mostly Cloudy
2:56 AM 32.0 °F 28.7 °F 24.1 °F 73% 30.15 in 10.0 mi North 3.5 mph - N/A   Clear
3:56 AM 32.0 °F 24.8 °F 22.1 °F 67% 30.17 in 10.0 mi North 8.1 mph - N/A   Clear
5:56 AM 27.1 °F 21.8 °F 20.1 °F 75% 30.18 in 10.0 mi North 4.6 mph - N/A   Clear
6:56 AM 26.1 °F - 19.0 °F 75% 30.19 in 10.0 mi Calm Calm - N/A   Clear
7:56 AM 30.0 °F 24.1 °F 20.1 °F 67% 30.20 in 10.0 mi North 5.8 mph - N/A   Clear
8:56 AM 32.9 °F 23.2 °F 17.1 °F 52% 30.22 in 10.0 mi NNW 13.8 mph - N/A   Clear
9:56 AM 36.0 °F 29.0 °F 15.1 °F 43% 30.22 in 10.0 mi NNW 9.2 mph - N/A   Partly Cloudy
10:56 AM 36.9 °F 29.1 °F 13.1 °F 38% 30.22 in 10.0 mi North 11.5 mph - N/A   Scattered Clouds
11:56 AM 37.9 °F 29.2 °F 11.1 °F 33% 30.20 in 10.0 mi NNW 15.0 mph 21.9 mph N/A   Partly Cloudy
12:56 PM 38.8 °F 32.1 °F 11.1 °F 32% 30.19 in 10.0 mi WNW 10.4 mph 16.1 mph N/A   Mostly Cloudy
1:56 PM 38.8 °F 31.6 °F 13.1 °F 35% 30.18 in 10.0 mi West 11.5 mph 20.7 mph N/A   Scattered Clouds
2:56 PM 36.9 °F 29.1 °F 15.1 °F 41% 30.19 in 10.0 mi NNW 11.5 mph 17.3 mph N/A   Mostly Cloudy
3:56 PM 34.9 °F 24.9 °F 18.1 °F 51% 30.20 in 10.0 mi NNW 16.1 mph 27.6 mph 0.00 in   Mostly Cloudy
4:56 PM 36.0 °F 28.5 °F 14.0 °F 41% 30.20 in 10.0 mi West 10.4 mph 16.1 mph 0.00 in   Mostly Cloudy
5:56 PM 32.9 °F 25.9 °F 14.0 °F 46% 30.22 in 10.0 mi NW 8.1 mph - 0.00 in   Mostly Cloudy
6:56 PM 31.1 °F - 14.0 °F 49% 30.24 in 10.0 mi Calm Calm - N/A   Clear
7:56 PM 29.1 °F - 14.0 °F 53% 30.26 in 10.0 mi Calm Calm - N/A   Clear
8:56 PM 28.0 °F - 14.0 °F 56% 30.28 in 10.0 mi Calm Calm - N/A   Clear
9:56 PM 27.1 °F - 13.1 °F 56% 30.28 in 10.0 mi Calm Calm - N/A   Clear
10:56 PM 26.1 °F - 12.0 °F 55% 30.28 in 10.0 mi Calm Calm - N/A   Clear
11:56 PM 24.1 °F - 13.1 °F 63% 30.28 in 10.0 mi Calm Calm - N/A   Clear